Quillayute, WA
on Thursday, February 21, 2013

Thursday
Previous Day Next Day
Daily Summary
 ActualAverageRecord
Temperature
Mean Temperature °F 42°F  
Max Temperature 49°F 50°F 63°F (1970)
Min Temperature 37°F 35°F 24°F (2005)
Degree Days
Heating Degree Days 22 23  
Month to date heating degree days 439 483  
Since 1 July heating degree days 3547 3688  
Cooling Degree Days 0 0  
Month to date cooling degree days 0 0  
Year to date cooling degree days 0 0  
Moisture
Dew Point 38°F   
Average Humidity 84    
Maximum Humidity 92    
Minimum Humidity 76    
Precipitation
Precipitation 0.60 in 0.36 in 4.00 in (2002)
Month to date precipitation 4.41 7.82  
Year to date precipitation 14.75 22.43  
Wind
Wind Speed 5 mph   
Max Wind Speed 16 mph   
Max Gust Speed 24 mph   
Visibility 2 miles   
Events Fog , Rain   

Key: T is trace of precipitation, MM is missing value
Source: NWS Daily Summary
Time(PST)TemperatureDew PointHumidity Pressure Visibility Wind DirectionWind SpeedGust SpeedPrecipitationEvents Conditions
12:06 AM 37.4°F 33.8°F 87% 30.01 in 0.2 miles Calm Calm - N/A Fog Fog
12:18 AM 37.4°F 33.8°F 87% 30.02 in 0.2 miles Calm Calm - N/A Fog Fog
12:53 AM 37.0°F 35.1°F 93% 30.03 in 0.5 miles Calm Calm - N/A Fog Fog
1:13 AM 39.2°F 35.6°F 87% 30.01 in 1.2 miles ESE 4.6 mph - 0.01 in Rain Light Rain
1:17 AM 39.2°F 35.6°F 87% 30.00 in 1.5 miles SE 4.6 mph - 0.01 in Rain Light Rain
1:27 AM 37.4°F 35.6°F 93% 30.00 in 2.0 miles SE 3.5 mph - 0.02 in Rain Light Rain
1:33 AM 37.4°F 35.6°F 93% 30.01 in 3.0 miles Variable 3.5 mph - 0.02 in Rain Light Rain
1:36 AM 39.2°F 35.6°F 87% 30.01 in 2.5 miles Variable 5.8 mph - 0.02 in Rain Light Rain
1:42 AM 39.2°F 35.6°F 87% 30.01 in 2.0 miles SSW 3.5 mph - 0.02 in Rain Light Rain
1:50 AM 39.2°F 37.4°F 93% 30.01 in 1.2 miles SSE 4.6 mph - 0.03 in Rain Light Rain
1:53 AM 39.9°F 37.0°F 89% 30.02 in 1.2 miles WSW 5.8 mph - 0.04 in Rain Light Rain
2:01 AM 39.2°F 37.4°F 93% 30.02 in 1.8 miles SE 4.6 mph - 0.00 in Rain Light Rain
2:08 AM 39.2°F 37.4°F 93% 30.01 in 3.0 miles Variable 3.5 mph - 0.00 in   Overcast
2:43 AM 41.0°F 37.4°F 87% 30.02 in 4.0 miles South 4.6 mph - 0.00 in   Overcast
2:53 AM 42.1°F 37.9°F 85% 30.02 in 5.0 miles SW 6.9 mph - 0.00 in   Overcast
3:06 AM 42.8°F 37.4°F 81% 30.02 in 5.0 miles SW 5.8 mph - N/A   Haze
3:15 AM 42.8°F 37.4°F 81% 30.02 in 3.0 miles SW 4.6 mph - 0.00 in Rain Light Rain
3:29 AM 42.8°F 37.4°F 81% 30.01 in 4.0 miles SW 6.9 mph - 0.00 in   Haze
3:53 AM 43.0°F 39.0°F 86% 30.03 in 3.0 miles SW 4.6 mph - 0.00 in   Overcast
4:43 AM 42.8°F 35.6°F 76% 30.02 in 2.5 miles West 13.8 mph 20.7 mph 0.01 in Rain Light Rain
4:53 AM 43.0°F 36.0°F 76% 30.03 in 3.0 miles SSW 5.8 mph - 0.01 in Rain Light Rain
5:30 AM 42.8°F 35.6°F 76% 30.02 in 3.0 miles WSW 6.9 mph - 0.01 in Rain Light Rain
5:49 AM 41.0°F 35.6°F 81% 30.03 in 2.5 miles SW 6.9 mph - 0.03 in Rain Light Rain
5:53 AM 42.1°F 36.0°F 79% 30.03 in 2.5 miles SW 8.1 mph - 0.04 in Rain Light Rain
6:05 AM 42.8°F 35.6°F 76% 30.03 in 1.8 miles SW 8.1 mph - 0.02 in Rain Light Rain
6:23 AM 42.8°F 37.4°F 81% 30.02 in 2.0 miles SW 8.1 mph - 0.06 in Rain Light Rain
6:36 AM 41.0°F 37.4°F 87% 30.02 in 3.0 miles South 5.8 mph - 0.07 in Rain Light Rain
6:50 AM 41.0°F 37.4°F 87% 30.01 in 2.5 miles SSW 4.6 mph - 0.08 in Rain Light Rain
6:53 AM 41.0°F 37.0°F 86% 30.02 in 3.0 miles SW 5.8 mph - 0.08 in Rain Light Rain
7:12 AM 41.0°F 35.6°F 81% 30.01 in 2.0 miles SSW 8.1 mph - 0.02 in Rain Light Rain
7:44 AM 41.0°F 37.4°F 87% 30.01 in 1.2 miles SSW 4.6 mph - 0.06 in Rain Light Rain
7:53 AM 41.0°F 37.0°F 86% 30.01 in 1.2 miles South 4.6 mph - 0.08 in Rain Rain
8:24 AM 42.8°F 37.4°F 81% 30.00 in 0.8 miles South 4.6 mph - 0.04 in Rain Light Rain
8:32 AM 42.8°F 37.4°F 81% 30.00 in 1.0 miles Variable 4.6 mph - 0.04 in Rain Light Rain
8:41 AM 42.8°F 37.4°F 81% 30.00 in 0.8 miles Variable 3.5 mph - 0.05 in Rain Light Rain
8:53 AM 42.1°F 37.9°F 85% 30.00 in 1.0 miles SSE 5.8 mph - 0.07 in Rain Light Rain
9:21 AM 42.8°F 39.2°F 87% 29.98 in 0.8 miles Variable 5.8 mph - 0.02 in Rain Light Rain
9:53 AM 45.0°F 41.0°F 86% 29.99 in 0.5 miles SSW 8.1 mph 21.9 mph 0.12 in Fog , Rain Rain
10:09 AM 44.6°F 41.0°F 87% 29.98 in 1.0 miles SSW 12.7 mph 18.4 mph 0.04 in Rain Light Rain
10:22 AM 46.4°F 41.0°F 81% 29.99 in 1.5 miles SW 9.2 mph - 0.06 in Rain Light Rain
10:29 AM 44.6°F 41.0°F 87% 29.99 in 2.0 miles SSW 3.5 mph - 0.06 in Rain Light Rain
10:40 AM 41.0°F 37.4°F 87% 29.99 in 4.0 miles East 5.8 mph - 0.06 in   Overcast
10:50 AM 41.0°F 37.4°F 87% 30.00 in 4.0 miles East 6.9 mph - 0.06 in   Overcast
10:53 AM 41.0°F 37.0°F 86% 30.00 in 4.0 miles East 6.9 mph - 0.06 in   Overcast
11:02 AM 42.8°F 37.4°F 81% 30.00 in 4.0 miles East 6.9 mph - N/A   Haze
11:53 AM 42.1°F 37.9°F 85% 30.00 in 2.0 miles ESE 4.6 mph - 0.01 in Rain Light Rain
11:56 AM 42.8°F 37.4°F 81% 30.00 in 1.8 miles Calm Calm - 0.00 in Rain Light Rain
12:21 PM 42.8°F 37.4°F 81% 30.00 in 2.5 miles East 4.6 mph - 0.01 in Rain Light Rain
12:27 PM 42.8°F 37.4°F 81% 30.00 in 4.0 miles ENE 3.5 mph - 0.01 in   Overcast
12:37 PM 42.8°F 39.2°F 87% 30.00 in 4.0 miles East 3.5 mph - 0.01 in   Overcast
12:53 PM 43.0°F 39.9°F 89% 30.01 in 3.0 miles Calm Calm - 0.01 in   Overcast
1:07 PM 44.6°F 39.2°F 81% 30.00 in 3.0 miles Calm Calm - N/A   Overcast
1:53 PM 46.0°F 42.1°F 86% 30.00 in 3.0 miles SW 8.1 mph - N/A   Overcast
1:57 PM 48.2°F 42.8°F 82% 30.00 in 2.5 miles West 8.1 mph - N/A   Haze
2:21 PM 48.2°F 41.0°F 76% 30.00 in 2.5 miles West 6.9 mph - N/A   Haze
2:53 PM 46.9°F 39.9°F 77% 30.01 in 2.5 miles West 5.8 mph - N/A   Haze
3:25 PM 48.2°F 39.2°F 71% 30.01 in 2.5 miles West 9.2 mph 16.1 mph N/A   Haze
3:53 PM 46.9°F 39.0°F 74% 30.02 in 2.5 miles West 6.9 mph - N/A   Haze
4:46 PM 46.4°F 39.2°F 76% 30.03 in 2.0 miles West 8.1 mph - N/A   Haze
4:53 PM 46.9°F 39.0°F 74% 30.04 in 2.0 miles West 6.9 mph - N/A   Haze
5:53 PM 46.0°F 39.0°F 76% 30.05 in 2.0 miles WSW 6.9 mph - N/A   Haze
6:04 PM 46.4°F 37.4°F 71% 30.04 in 3.0 miles WSW 5.8 mph - N/A   Haze
6:50 PM 44.6°F 39.2°F 81% 30.03 in 3.0 miles WSW 4.6 mph - N/A   Haze
6:53 PM 44.1°F 39.0°F 82% 30.04 in 3.0 miles WSW 4.6 mph - N/A   Haze
7:28 PM 44.6°F 37.4°F 76% 30.04 in 3.0 miles WSW 4.6 mph - N/A   Haze
7:53 PM 44.1°F 37.9°F 79% 30.05 in 3.0 miles SW 3.5 mph - N/A   Haze
8:53 PM 43.0°F 37.9°F 82% 30.06 in 4.0 miles SSE 3.5 mph - N/A   Haze
9:14 PM 42.8°F 37.4°F 81% 30.04 in 4.0 miles SE 3.5 mph - N/A   Haze
9:32 PM 42.8°F 37.4°F 81% 30.05 in 3.0 miles Calm Calm - 0.00 in Rain Light Rain
9:53 PM 43.0°F 39.0°F 86% 30.05 in 3.0 miles Calm Calm - 0.00 in   Overcast
10:13 PM 44.6°F 39.2°F 81% 30.05 in 3.0 miles SSW 4.6 mph - 0.00 in Rain Light Rain
10:45 PM 44.6°F 39.2°F 81% 30.03 in 2.0 miles SSW 5.8 mph - 0.03 in Rain Light Rain
11:13 PM 44.6°F 37.4°F 76% 30.03 in 3.0 miles SSW 6.9 mph - 0.01 in Rain Light Rain
11:53 PM 44.1°F 39.0°F 82% 30.04 in 1.5 miles Variable 6.9 mph - 0.03 in Rain Rain
Moon Phase
Feb. 21 Feb. 25 Mar. 04 Mar. 11 Mar. 19
Sunrise:07:13 AM (PST) Moon Rise:01:59 PM (PST)2/21
Sunset:05:50 PM (PST) Moon Set:04:34 AM (PST)2/21

Copyright © 2014 The Weather Underground, Inc.